Location: Kervinic
(48.4279°N, 4.7373°W)
Time: 21:44:51
(UTC+00:00)

MetOp-B - Pass Details

Date: 09 April 2020
Orbit: 819 x 822 km, 98.7° (Epoch: 27 May)

Event Time Altitude Azimuth Distance (km) Brightness Sun altitude
Exits shadow 20:32:20 21° 133° (SE) 1,754 5.2 -14.7°
Maximum altitude 20:35:38 49° 68° (ENE) 1,055 4.5 -15.2°
Drops below altitude 10° 20:40:48 10° 355° (N) 2,431 7.1 -15.9°
Sets 20:43:13 0° 350° (N) 3,368 8.0 -16.2°
